H1 CPF 1 NER 2012 11 28 9 8331 glonass114 H2 0806703 9114 33468 2012 11 28 0 0 0 2012 12 1 23 45 0 900 1 1 0 0 0 H9 10 0 56259 0.00000 0 -3304269.802 11413651.166 -22566359.607 10 0 56259 900.00000 0 -6003670.210 11856312.819 -21765868.261 10 0 56259 1800.00000 0 -8543071.832 12463585.749 -20542390.659 10 0 56259 2700.00000 0 -10864561.422 13201388.568 -18919637.809 10 0 56259 3600.00000 0 -12918589.578 14026595.952 -16929093.207 10 0 56259 4500.00000 0 -14665792.164 14888912.454 -14609405.471 10 0 56259 5400.00000 0 -16078391.031 15733067.755 -12005639.938 10 0 56259 6300.00000 0 -17141115.829 16501240.917 -9168403.319 10 0 56259 7200.00000 0 -17851608.787 17135611.072 -6152858.324 10 0 56259 8100.00000 0 -18220296.155 17580926.370 -3017647.481 10 0 56259 9000.00000 0 -18269732.518 17786981.933 176252.573 10 0 56259 9900.00000 0 -18033446.494 17710901.244 3366723.300 10 0 56259 10800.00000 0 -17554337.591 17319123.590 6491719.056 10 0 56259 11700.00000 0 -16882693.015 16589012.671 9490479.946 10 0 56259 12600.00000 0 -16073909.332 15510017.576 12304718.299 10 0 56259 13500.00000 0 -15186016.261 14084336.412 14879755.016 10 0 56259 14400.00000 0 -14277108.042 12327053.970 17165583.325 10 0 56259 15300.00000 0 -13402791.445 10265747.113 19117839.063 10 0 56259 16200.00000 0 -12613758.381 7939574.016 20698658.864 10 0 56259 17100.00000 0 -11953585.435 5397884.853 21877410.056 10 0 56259 18000.00000 0 -11456852.715 2698411.653 22631278.714 10 0 56259 18900.00000 0 -11147660.666 -94887.810 22945705.283 10 0 56259 19800.00000 0 -11038606.531 -2914242.982 22814660.114 10 0 56259 20700.00000 0 -11130262.791 -5690640.712 22240754.256 10 0 56259 21600.00000 0 -11411178.783 -8356446.857 21235183.924 10 0 56259 22500.00000 0 -11858404.890 -10847971.501 19817510.034 10 0 56259 23400.00000 0 -12438516.850 -13107872.313 18015277.174 10 0 56259 24300.00000 0 -13109096.917 -15087297.416 15863479.290 10 0 56259 25200.00000 0 -13820609.526 -16747679.880 13403882.124 10 0 56259 26100.00000 0 -14518592.586 -18062110.229 10684215.181 10 0 56259 27000.00000 0 -15146072.273 -19016230.925 7757248.483 10 0 56259 27900.00000 0 -15646099.704 -19608616.536 4679771.583 10 0 56259 28800.00000 0 -15964302.603 -19850624.552 1511494.416 10 0 56259 29700.00000 0 -16051344.307 -19765724.064 -1686108.866 10 0 56259 30600.00000 0 -15865186.130 -19388331.130 -4850990.797 10 0 56259 31500.00000 0 -15373057.280 -18762200.420 -7921732.973 10 0 56259 32400.00000 0 -14553048.749 -17938441.334 -10838736.522 10 0 56259 33300.00000 0 -13395263.163 -16973242.351 -13545377.565 10 0 56259 34200.00000 0 -11902471.241 -15925399.650 -15989105.115 10 0 56259 35100.00000 0 -10090246.134 -14853754.117 -18122460.232 10 0 56259 36000.00000 0 -7986568.646 -13814644.608 -19903996.795 10 0 56259 36900.00000 0 -5630918.489 -12859484.499 -21299086.176 10 0 56259 37800.00000 0 -3072888.078 -12032563.346 -22280590.475 10 0 56259 38700.00000 0 -370375.139 -11369165.855 -22829391.459 10 0 56259 39600.00000 0 2412571.888 -10894087.185 -22934764.990 10 0 56259 40500.00000 0 5208167.390 -10620606.913 -22594593.688 10 0 56259 41400.00000 0 7947461.886 -10549964.813 -21815413.460 10 0 56259 42300.00000 0 10562969.039 -10671360.699 -20612292.571 10 0 56259 43200.00000 0 12991237.968 -10962478.521 -19008545.091 10 0 56259 44100.00000 0 15175264.464 -11390512.909 -17035283.563 10 0 56259 45000.00000 0 17066641.002 -11913655.163 -14730818.964 10 0 56259 45900.00000 0 18627356.284 -12482976.113 -12139919.008 10 0 56259 46800.00000 0 19831169.361 -13044626.362 -9312938.751 10 0 56259 47700.00000 0 20664501.101 -13542260.690 -6304840.248 10 0 56259 48600.00000 0 21126806.026 -13919583.662 -3174120.410 10 0 56259 49500.00000 0 21230409.458 -14122908.061 18331.760 10 0 56259 50400.00000 0 20999817.459 -14103617.023 3210425.636 10 0 56259 51300.00000 0 20470529.540 -13820424.740 6340083.202 10 0 56259 52200.00000 0 19687405.164 -13241339.056 9346452.632 10 0 56259 53100.00000 0 18702653.968 -12345242.052 12171096.645 10 0 56259 54000.00000 0 17573535.525 -11123020.947 14759131.961 10 0 56259 54900.00000 0 16359866.537 -9578200.800 17060297.218 10 0 56259 55800.00000 0 15121441.228 -7727051.728 19029928.411 10 0 56259 56700.00000 0 13915473.987 -5598165.465 20629823.097 10 0 56259 57600.00000 0 12794171.978 -3231518.437 21828977.019 10 0 56259 58500.00000 0 11802539.503 -677060.008 22604179.467 10 0 56259 59400.00000 0 10976505.831 2007115.799 22940456.633 10 0 56259 60300.00000 0 10341454.272 4756939.623 22831355.151 10 0 56259 61200.00000 0 9911213.295 7504787.578 22279061.039 10 0 56259 62100.00000 0 9687551.006 10182053.789 21294352.282 10 0 56259 63000.00000 0 9660193.230 12721768.822 19896386.359 10 0 56259 63900.00000 0 9807363.602 15061156.118 18112326.889 10 0 56259 64800.00000 0 10096822.281 17144021.334 15976816.583 10 0 56259 65700.00000 0 10487359.137 18922876.301 13531306.381 10 0 56259 66600.00000 0 10930678.261 20360710.041 10823253.437 10 0 56259 67500.00000 0 11373594.254 21432334.144 7905203.092 10 0 56259 68400.00000 0 11760447.630 22125247.198 4833772.225 10 0 56259 69300.00000 0 12035637.388 22439982.881 1668553.490 10 0 56259 70200.00000 0 12146163.718 22389927.787 -1529038.574 10 0 56259 71100.00000 0 12044073.224 22000617.276 -4696957.252 10 0 56259 72000.00000 0 11688703.197 21308539.553 -7773725.924 10 0 56259 72900.00000 0 11048629.613 20359498.475 -10699629.614 10 0 56259 73800.00000 0 10103235.963 19206604.196 -13417872.660 10 0 56259 74700.00000 0 8843835.941 17907976.277 -15875679.881 10 0 56259 75600.00000 0 7274301.591 16524255.857 -18025320.045 10 0 56259 76500.00000 0 5411169.180 15116031.307 -19825031.877 10 0 56259 77400.00000 0 3283216.963 13741285.327 -21239834.804 10 0 56259 78300.00000 0 930530.898 12452970.413 -22242208.951 10 0 56259 79200.00000 0 -1596904.273 11296814.093 -22812631.423 10 0 56259 80100.00000 0 -4241031.353 10309445.717 -22939958.511 10 0 56259 81000.00000 0 -6937889.840 9516923.067 -22621646.428 10 0 56259 81900.00000 0 -9620039.014 8933720.330 -21863806.065 10 0 56259 82800.00000 0 -12219135.191 8562219.742 -20681090.309 10 0 56259 83700.00000 0 -14668556.868 8392728.142 -19096415.592 10 0 56259 84600.00000 0 -16905969.163 8404017.572 -17140522.375 10 0 56259 85500.00000 0 -18875721.071 8564367.184 -14851382.489 10 0 56260 0.00000 0 -20530975.821 8833062.324 -12273464.266 10 0 56260 900.00000 0 -21835485.346 9162287.311 -9456868.904 10 0 56260 1800.00000 0 -22764935.142 9499331.697 -6456355.605 10 0 56260 2700.00000 0 -23307802.211 9789015.881 -3330273.275 10 0 56260 3600.00000 0 -23465691.665 9976233.018 -139420.786 10 0 56260 4500.00000 0 -23253137.106 10008498.460 3054141.711 10 0 56260 5400.00000 0 -22696874.331 9838397.888 6188306.476 10 0 56260 6300.00000 0 -21834619.483 9425829.357 9202132.431 10 0 56260 7200.00000 0 -20713404.047 8739943.398 12037035.416 10 0 56260 8100.00000 0 -19387537.757 7760698.134 14637930.671 10 0 56260 9000.00000 0 -17916286.029 6479962.854 16954304.869 10 0 56260 9900.00000 0 -16361360.457 4902122.765 18941196.630 10 0 56260 10800.00000 0 -14784328.336 3044158.751 20560066.671 10 0 56260 11700.00000 0 -13244050.207 935198.099 21779541.087 10 0 56260 12600.00000 0 -11794252.856 -1384445.558 22576013.969 10 0 56260 13500.00000 0 -10481338.971 -3864703.646 22934098.455 10 0 56260 14400.00000 0 -9342524.429 -6447596.390 22846918.257 10 0 56260 15300.00000 0 -8404380.215 -9069412.767 22316234.736 10 0 56260 16200.00000 0 -7681838.791 -11663136.823 21352407.626 10 0 56260 17100.00000 0 -7177705.303 -14161020.369 19974190.532 10 0 56260 18000.00000 0 -6882692.903 -16497195.948 18208365.280 10 0 56260 18900.00000 0 -6775979.626 -18610222.399 16089222.144 10 0 56260 19800.00000 0 -6826262.485 -20445458.018 13657895.705 10 0 56260 20700.00000 0 -6993263.790 -21957163.310 10961568.904 10 0 56260 21600.00000 0 -7229625.730 -23110246.493 8052560.293 10 0 56260 22500.00000 0 -7483112.999 -23881579.548 4987311.751 10 0 56260 23400.00000 0 -7699030.282 -24260830.490 1825296.103 10 0 56260 24300.00000 0 -7822752.316 -24250777.444 -1372134.404 10 0 56260 25200.00000 0 -7802259.359 -23867091.771 -4542936.572 10 0 56260 26100.00000 0 -7590570.641 -23137599.756 -7625578.466 10 0 56260 27000.00000 0 -7147972.542 -22101054.097 -10560232.002 10 0 56260 27900.00000 0 -6443946.834 -20805466.915 -13289932.755 10 0 56260 28800.00000 0 -5458716.810 -19306074.269 -15761684.368 10 0 56260 29700.00000 0 -4184345.197 -17663017.614 -17927486.229 10 0 56260 30600.00000 0 -2625336.415 -15938839.282 -19745264.636 10 0 56260 31500.00000 0 -798716.545 -14195896.770 -21179689.497 10 0 56260 32400.00000 0 1266413.905 -12493803.814 -22202861.021 10 0 56260 33300.00000 0 3529837.376 -10887004.995 -22794853.275 10 0 56260 34200.00000 0 5941648.396 -9422584.971 -22944104.143 10 0 56260 35100.00000 0 8444096.476 -8138403.556 -22647644.129 10 0 56260 36000.00000 0 10973767.469 -7061634.218 -21911159.349 10 0 56260 36900.00000 0 13464013.736 -6207766.832 -20748887.119 10 0 56260 37800.00000 0 15847532.943 -5580116.047 -19183345.607 10 0 56260 38700.00000 0 18058988.853 -5169855.507 -17244902.132 10 0 56260 39600.00000 0 20037565.195 -4956576.184 -14971187.858 10 0 56260 40500.00000 0 21729346.277 -4909344.867 -12406369.608 10 0 56260 41400.00000 0 23089424.881 -4988217.757 -9600292.481 10 0 56260 42300.00000 0 24083649.046 -5146144.742 -6607509.762 10 0 56260 43200.00000 0 24689934.436 -5331183.157 -3486219.017 10 0 56260 44100.00000 0 24899087.117 -5488926.534 -297125.356 10 0 56260 45000.00000 0 24715102.221 -5565044.586 2897745.343 10 0 56260 45900.00000 0 24154926.156 -5507825.759 6036259.427 10 0 56260 46800.00000 0 23247692.813 -5270613.575 9057390.259 10 0 56260 47700.00000 0 22033466.507 -4814032.514 11902410.240 10 0 56260 48600.00000 0 20561545.264 -4107908.247 14516036.222 10 0 56260 49500.00000 0 18888396.569 -3132800.086 16847505.600 10 0 56260 50400.00000 0 17075313.020 -1881080.209 18851561.875 10 0 56260 51300.00000 0 15185886.815 -357513.421 20489330.723 10 0 56260 52200.00000 0 13283409.248 1420687.607 21729069.951 10 0 56260 53100.00000 0 11428304.127 3424334.520 22546779.363 10 0 56260 54000.00000 0 9675702.091 5613243.775 22926659.520 10 0 56260 54900.00000 0 8073256.510 7937685.168 22861411.247 10 0 56260 55800.00000 0 6659291.273 10340238.586 22352370.854 10 0 56260 56700.00000 0 5461356.541 12757982.407 21409478.999 10 0 56260 57600.00000 0 4495251.459 15124923.263 20051084.193 10 0 56260 58500.00000 0 3764553.272 17374566.789 18303584.883 10 0 56260 59400.00000 0 3260671.160 19442523.213 16200916.991 10 0 56260 60300.00000 0 2963421.246 21269040.097 13783896.557 10 0 56260 61200.00000 0 2842097.589 22801357.341 11099429.889 10 0 56260 62100.00000 0 2856993.235 23995786.834 8199606.120 10 0 56260 63000.00000 0 2961306.539 24819430.536 5140689.365 10 0 56260 63900.00000 0 3103351.951 25251465.451 1982029.775 10 0 56260 64800.00000 0 3228981.468 25283942.041 -1215085.606 10 0 56260 65700.00000 0 3284114.160 24922062.910 -4388620.008 10 0 56260 66600.00000 0 3217266.510 24183930.160 -7476988.963 10 0 56260 67500.00000 0 2981976.245 23099772.103 -10420253.886 10 0 56260 68400.00000 0 2539016.757 21710681.725 -13161283.982 10 0 56260 69300.00000 0 1858307.953 20066919.696 -15646863.859 10 0 56260 70200.00000 0 920442.165 18225852.899 -17828725.414 10 0 56260 71100.00000 0 -282240.252 16249614.528 -19664484.151 10 0 56260 72000.00000 0 -1745072.004 14202583.392 -21118461.873 10 0 56260 72900.00000 0 -3451002.375 12148787.430 -22162380.067 10 0 56260 73800.00000 0 -5371067.097 10149339.406 -22775910.734 10 0 56260 74700.00000 0 -7465366.462 8260011.478 -22947074.061 10 0 56260 75600.00000 0 -9684512.445 6529049.286 -22672475.250 10 0 56260 76500.00000 0 -11971485.990 4995316.270 -21957375.703 10 0 56260 77400.00000 0 -14263828.260 3686845.243 -20815596.811 10 0 56260 78300.00000 0 -16496075.625 2619857.167 -19269257.699 10 0 56260 79200.00000 0 -18602337.680 1798287.651 -17348351.341 10 0 56260 80100.00000 0 -20518911.144 1213840.489 -15090166.641 10 0 56260 81000.00000 0 -22186820.703 846565.388 -12538567.054 10 0 56260 81900.00000 0 -23554180.509 665934.901 -9743139.284 10 0 56260 82800.00000 0 -24578277.145 632374.510 -6758228.389 10 0 56260 83700.00000 0 -25227286.423 699180.407 -3641878.070 10 0 56260 84600.00000 0 -25481551.561 814742.969 -454697.049 10 0 56260 85500.00000 0 -25334368.755 924980.826 2741325.787 10 0 56261 0.00000 0 -24792247.037 975881.357 5884033.599 10 0 56261 900.00000 0 -23874631.268 916038.567 8912317.150 10 0 56261 1800.00000 0 -22613100.948 699080.659 11767308.184 10 0 56261 2700.00000 0 -21050077.820 285881.905 14393527.950 10 0 56261 3600.00000 0 -19237098.214 -353533.986 16739967.215 10 0 56261 4500.00000 0 -17232722.546 -1238481.369 18761076.798 10 0 56261 5400.00000 0 -15100170.383 -2376555.011 20417649.470 10 0 56261 6300.00000 0 -12904780.275 -3763072.590 21677576.515 10 0 56261 7200.00000 0 -10711400.707 -5381041.265 22516464.814 10 0 56261 8100.00000 0 -8581820.814 -7201650.269 22918103.268 10 0 56261 9000.00000 0 -6572347.469 -9185269.504 22874770.317 10 0 56261 9900.00000 0 -4731628.902 -11282912.928 22387377.308 10 0 56261 10800.00000 0 -3098814.370 -13438106.354 21465445.536 10 0 56261 11700.00000 0 -1702125.182 -15589082.450 20126917.779 10 0 56261 12600.00000 0 -557895.266 -17671212.124 18397808.143 10 0 56261 13500.00000 0 329880.245 -19619571.692 16311696.932 10 0 56261 14400.00000 0 969471.017 -21371539.464 13909080.090 10 0 56261 15300.00000 0 1380816.543 -22869313.981 11236585.473 10 0 56261 16200.00000 0 1594436.362 -24062249.296 8346070.767 10 0 56261 17100.00000 0 1649892.302 -24908910.065 5293620.090 10 0 56261 18000.00000 0 1593868.263 -25378760.712 2138458.534 10 0 56261 18900.00000 0 1477949.129 -25453418.086 -1058194.554 10 0 56261 19800.00000 0 1356193.104 -25127415.151 -4234311.400 10 0 56261 20700.00000 0 1282600.402 -24408443.554 -7328257.658 10 0 56261 21600.00000 0 1308585.676 -23317064.806 -10279986.950 10 0 56261 22500.00000 0 1480561.421 -21885901.875 -13032204.847 10 0 56261 23400.00000 0 1837734.908 -20158344.816 -15531479.633 10 0 56261 24300.00000 0 2410212.282 -18186824.256 -17729278.349 10 0 56261 25200.00000 0 3217490.529 -16030724.558 -19582908.192 10 0 56261 26100.00000 0 4267401.786 -13754023.439 -21056345.107 10 0 56261 27000.00000 0 5555555.501 -11422756.082 -22120933.799 10 0 56261 27900.00000 0 7065303.246 -9102408.928 -22755945.784 10 0 56261 28800.00000 0 8768229.020 -6855351.272 -22948984.755 10 0 56261 29700.00000 0 10625146.073 -4738411.053 -22696231.425 10 0 56261 30600.00000 0 12587560.048 -2800695.148 -22002522.899 10 0 56261 31500.00000 0 14599538.622 -1081744.534 -20881264.690 10 0 56261 32400.00000 0 16599910.739 389899.448 -19354176.545 10 0 56261 33300.00000 0 18524704.473 1597658.471 -17450876.370 10 0 56261 34200.00000 0 20309722.173 2537370.552 -15208309.666 10 0 56261 35100.00000 0 21893145.444 3217215.048 -12670034.932 10 0 56261 36000.00000 0 23218060.904 3657113.239 -9885378.422 10 0 56261 36900.00000 0 24234800.457 3887630.485 -6908474.455 10 0 56261 37800.00000 0 24902997.466 3948427.200 -3797209.960 10 0 56261 38700.00000 0 25193271.892 3886325.032 -612094.029 10 0 56261 39600.00000 0 25088472.956 3753071.123 2584924.899 10 0 56261 40500.00000 0 24584426.665 3602896.195 5731670.468 10 0 56261 41400.00000 0 23690156.428 3489971.091 8766954.108 10 0 56261 42300.00000 0 22427567.397 3465870.577 11631770.378 10 0 56261 43200.00000 0 20830607.919 3577152.880 14270448.073 10 0 56261 44100.00000 0 18943943.541 3863158.289 16631734.175 10 0 56261 45000.00000 0 16821199.569 4354120.660 18669789.327 10 0 56261 45900.00000 0 14522846.128 5069672.149 20345075.556 10 0 56261 46800.00000 0 12113814.413 6017804.738 21625119.419 10 0 56261 47700.00000 0 9660943.803 7194332.610 22485136.264 10 0 56261 48600.00000 0 7230366.091 8582878.356 22908504.327 10 0 56261 49500.00000 0 4884935.319 10155383.977 22887080.213 10 0 56261 50400.00000 0 2681809.462 11873125.658 22421350.392 10 0 56261 51300.00000 0 670283.508 13688190.365 21520416.408 10 0 56261 52200.00000 0 -1110037.238 15545353.139 20201814.441 10 0 56261 53100.00000 0 -2630648.974 17384277.177 18491172.927 10 0 56261 54000.00000 0 -3875089.102 19141945.498 16421714.824 10 0 56261 54900.00000 0 -4839366.193 20755223.206 14033613.893 10 0 56261 55800.00000 0 -5531863.696 22163443.739 11373217.171 10 0 56261 56700.00000 0 -5972722.817 23310911.430 8492148.289 10 0 56261 57600.00000 0 -6192731.714 24149215.917 5446308.607 10 0 56261 58500.00000 0 -6231768.651 24639261.613 2294795.274 10 0 56261 59400.00000 0 -6136865.547 24752927.169 -901242.986 10 0 56261 60300.00000 0 -5959974.228 24474285.222 -4079790.338 10 0 56261 61200.00000 0 -5755530.152 23800330.971 -7179165.443 10 0 56261 62100.00000 0 -5577916.986 22741188.680 -10139216.885 10 0 56261 63000.00000 0 -5478939.492 21319786.951 -12902489.190 10 0 56261 63900.00000 0 -5505411.867 19571015.891 -15415336.677 10 0 56261 64800.00000 0 -5696963.794 17540400.831 -17628963.649 10 0 56261 65700.00000 0 -6084157.297 15282347.432 -19500370.855 10 0 56261 66600.00000 0 -6686994.420 12858030.838 -20993190.003 10 0 56261 67500.00000 0 -7513879.404 10333016.229 -22078390.398 10 0 56261 68400.00000 0 -8561079.979 7774709.194 -22734844.204 10 0 56261 69300.00000 0 -9812711.549 5249741.438 -22949739.477 10 0 56261 70200.00000 0 -11241246.195 2821399.868 -22718832.981 10 0 56261 71100.00000 0 -12808526.512 547205.282 -22046537.717 10 0 56261 72000.00000 0 -14467243.038 -1523259.161 -20945843.102 10 0 56261 72900.00000 0 -16162814.634 -3350179.997 -19438068.867 10 0 56261 73800.00000 0 -17835594.016 -4904930.321 -17552456.776 10 0 56261 74700.00000 0 -19423306.743 -6171012.899 -15325607.445 10 0 56261 75600.00000 0 -20863621.786 -7144490.845 -12800772.588 10 0 56261 76500.00000 0 -22096745.952 -7833888.549 -10027015.871 10 0 56261 77400.00000 0 -23067932.897 -8259567.809 -7058258.505 10 0 56261 78300.00000 0 -23729800.844 -8452606.385 -3952228.078 10 0 56261 79200.00000 0 -24044360.829 -8453227.295 -769331.330 10 0 56261 80100.00000 0 -23984669.382 -8308846.252 2428526.593 10 0 56261 81000.00000 0 -23536035.374 -8071821.034 5579152.713 10 0 56261 81900.00000 0 -22696729.595 -7796999.189 8621282.258 10 0 56261 82800.00000 0 -21478166.801 -7539169.074 11495775.581 10 0 56261 83700.00000 0 -19904552.323 -7350523.173 14146771.971 10 0 56261 84600.00000 0 -18012007.969 -7278241.988 16522777.446 10 0 56261 85500.00000 0 -15847214.028 -7362301.349 18577665.045 10 0 56262 0.00000 0 -13465624.357 -7633596.268 20271568.260 10 0 56262 900.00000 0 -10929329.048 -8112461.226 21571650.807 10 0 56262 1800.00000 0 -8304654.427 -8807648.313 22452737.875 10 0 56262 2700.00000 0 -5659599.674 -9715808.214 22897797.948 10 0 56262 3600.00000 0 -3061216.509 -10821494.039 22898266.266 10 0 56262 4500.00000 0 -573040.367 -12097689.253 22454204.476 10 0 56262 5400.00000 0 1747321.274 -13506837.250 21574294.030 10 0 56262 6300.00000 0 3850344.383 -15002329.948 20275663.828 10 0 56262 7200.00000 0 5696399.336 -16530393.409 18583555.645 10 0 56262 8100.00000 0 7257143.556 -18032292.052 16530833.792 10 0 56262 9000.00000 0 8516439.377 -19446759.673 14157348.256 10 0 56262 9900.00000 0 9470760.249 -20712555.892 11509163.381 10 0 56262 10800.00000 0 10129069.838 -21771041.295 8637666.606 10 0 56262 11700.00000 0 10512180.377 -22568663.594 5598574.147 10 0 56262 12600.00000 0 10651618.313 -23059250.567 2450852.654 10 0 56262 13500.00000 0 10588045.957 -23206013.511 -744422.478 10 0 56262 14400.00000 0 10369306.368 -22983176.860 -3925250.124 10 0 56262 15300.00000 0 10048174.518 -22377165.144 -7029904.741 10 0 56262 16200.00000 0 9679910.116 -21387296.936 -9998132.650 10 0 56262 17100.00000 0 9319715.809 -20025956.008 -12772320.025 10 0 56262 18000.00000 0 9020208.341 -18318231.793 -15298609.831 10 0 56262 18900.00000 0 8829009.746 -16301043.396 -17527946.091 10 0 56262 19800.00000 0 8786560.508 -14021782.874 -19417025.374 10 0 56262 20700.00000 0 8924247.254 -11536533.644 -20929137.157 10 0 56262 21600.00000 0 9262924.355 -8907937.351 -22034877.041 10 0 56262 22500.00000 0 9811892.268 -6202797.143 -22712719.189 10 0 56262 23400.00000 0 10568376.353 -3489516.254 -22949437.001 10 0 56262 24300.00000 0 11517528.973 -835477.532 -22740363.909 10 0 56262 25200.00000 0 12632955.823 1695528.028 -22089489.054 10 0 56262 26100.00000 0 13877745.432 4045717.481 -21009385.668 10 0 56262 27000.00000 0 15205959.687 6165477.130 -19520973.033 10 0 56262 27900.00000 0 16564523.747 8015179.402 -17653116.002 10 0 56262 28800.00000 0 17895436.686 9566580.204 -15442069.199 10 0 56262 29700.00000 0 19138210.455 10803739.087 -12930776.063 10 0 56262 30600.00000 0 20232434.815 11723424.392 -10168035.804 10 0 56262 31500.00000 0 21120360.097 12334987.082 -7207554.274 10 0 56262 32400.00000 0 21749388.661 12659709.472 -4106897.118 10 0 56262 33300.00000 0 22074369.376 12729657.224 -926365.827 10 0 56262 34200.00000 0 22059597.622 12586084.084 2272180.846 10 0 56262 35100.00000 0 21680435.636 12277457.907 5426536.505 10 0 56262 36000.00000 0 20924484.071 11857192.615 8475363.392 10 0 56262 36900.00000 0 19792254.721 11381183.163 11359390.768 10 0 56262 37800.00000 0 18297315.535 10905248.913 14022571.382 10 0 56262 38700.00000 0 16465901.394 10482594.449 16413173.030 10 0 56262 39600.00000 0 14336006.789 10161395.902 18484783.643 10 0 56262 40500.00000 0 11955998.272 9982615.211 20197210.456 10 0 56262 41400.00000 0 9382804.522 9978134.800 21517256.153 10 0 56262 42300.00000 0 6679759.559 10169291.319 22419357.391 10 0 56262 43200.00000 0 3914188.644 10565870.092 22886074.140 10 0 56262 44100.00000 0 1154836.893 11165602.364 22908421.074 10 0 56262 45000.00000 0 -1530753.095 11954186.280 22486035.366 10 0 56262 45900.00000 0 -4078806.554 12905830.597 21627178.237 10 0 56262 46800.00000 0 -6431719.405 13984298.291 20348570.664 10 0 56262 47700.00000 0 -8540199.990 15144406.401 18675066.615 10 0 56262 48600.00000 0 -10365062.090 16333919.401 16639170.160 10 0 56262 49500.00000 0 -11878596.075 17495757.019 14280405.533 10 0 56262 50400.00000 0 -13065462.430 18570424.141 11644552.083 10 0 56262 51300.00000 0 -13923071.786 19498561.119 8782758.535 10 0 56262 52200.00000 0 -14461436.898 20223507.589 5750553.284 10 0 56262 53100.00000 0 -14702503.872 20693772.100 2606769.710 10 0 56262 54000.00000 0 -14678991.811 20865303.704 -587592.938 10 0 56262 54900.00000 0 -14432790.479 20703469.693 -3770551.073 10 0 56262 55800.00000 0 -14012984.161 20184655.909 -6880337.749 10 0 56262 56700.00000 0 -13473585.520 19297421.738 -9856599.748 10 0 56262 57600.00000 0 -12871075.437 18043160.506 -12641567.512 10 0 56262 58500.00000 0 -12261852.869 16436236.690 -15181175.086 10 0 56262 59400.00000 0 -11699702.504 14503593.177 -17426108.441 10 0 56262 60300.00000 0 -11233387.149 12283843.908 -19332761.947 10 0 56262 61200.00000 0 -10904466.457 9825888.747 -20864084.583 10 0 56262 62100.00000 0 -10745434.064 7187107.201 -21990299.706 10 0 56262 63000.00000 0 -10778251.804 4431205.077 -22689484.671 10 0 56262 63900.00000 0 -11013343.046 1625802.670 -22947999.117 10 0 56262 64800.00000 0 -11449087.968 -1160136.317 -22760753.727 10 0 56262 65700.00000 0 -12071842.612 -3858929.255 -22131314.023 10 0 56262 66600.00000 0 -12856481.637 -6406744.184 -21071836.915 10 0 56262 67500.00000 0 -13767442.691 -8746008.498 -19602840.713 10 0 56262 68400.00000 0 -14760229.268 -10827557.198 -17752812.437 10 0 56262 69300.00000 0 -15783309.402 -12612431.714 -15557659.419 10 0 56262 70200.00000 0 -16780330.746 -14073254.855 -13060015.184 10 0 56262 71100.00000 0 -17692558.925 -15195124.968 -10308412.572 10 0 56262 72000.00000 0 -18461436.272 -15975992.397 -7356339.910 10 0 56262 72900.00000 0 -19031152.659 -16426503.196 -4261198.544 10 0 56262 73800.00000 0 -19351119.272 -16569317.463 -1083182.192 10 0 56262 74700.00000 0 -19378240.093 -16437931.930 2115899.465 10 0 56262 75600.00000 0 -19078884.246 -16075057.559 5273829.412 10 0 56262 76500.00000 0 -18430474.970 -15530621.775 8329199.809 10 0 56262 77400.00000 0 -17422627.347 -14859480.877 11222611.792 10 0 56262 78300.00000 0 -16057785.978 -14118940.416 13897834.528 10 0 56262 79200.00000 0 -14351335.139 -13366189.259 16302900.457 10 0 56262 80100.00000 0 -12331176.280 -12655756.454 18391115.083 10 0 56262 81000.00000 0 -10036790.196 -12037098.746 20121961.769 10 0 56262 81900.00000 0 -7517822.715 -11552420.657 21461884.276 10 0 56262 82800.00000 0 -4832252.753 -11234818.917 22384932.365 10 0 56262 83700.00000 0 -2044218.696 -11106829.065 22873258.703 10 0 56262 84600.00000 0 778406.953 -11179434.890 22917458.195 10 0 56262 85500.00000 0 3566594.362 -11451581.822 22516743.908 99